Location: Combourg
(48.4127°N, 1.7442°W)
Time: 08:36:44
(UTC+00:00)

Cosmos 2237 - Pass Details

Date: 13 December 2025
Orbit: 847 x 856 km, 70.8° (Epoch: 21 April)

Event Time Altitude Azimuth Distance (km) Brightness Sun altitude
Rises 19:04:40 0° 208° (SSW) 3,411 7.8 -27.4°
Reaches altitude 10° 19:07:07 10° 209° (SSW) 2,478 7.0 -27.8°
Enters shadow 19:12:42 84° 265° (W) 863 4.1 -28.8°
